Location: Coopersdale
(40.3556°N, 78.9372°W)
Time: 19:59:41
(UTC+00:00)

Transit 4A - Pass Details

Date: 21 January 2021
Orbit: 866 x 978 km, 66.8° (Epoch: 26 February)

Event Time Altitude Azimuth Distance (km) Brightness Sun altitude
Rises 03:32:24 0° 279° (W) 3,678 11.5 -58.1°
Enters shadow 03:32:38 - 281° (W) 3,618 11.4 -58.1°
Reaches altitude 10° 03:37:44 10° 316° (NW) 2,727 - -59.0°
Maximum altitude 03:39:07 11° 329° (NNW) 2,675 - -59.2°
Drops below altitude 10° 03:40:31 10° 342° (NNW) 2,722 - -59.4°
Sets 03:45:50 0° 19° (NNE) 3,650 - -60.2°
